CDT,Max TemperatureF,Mean TemperatureF,Min TemperatureF,Max Dew PointF,MeanDew PointF,Min DewpointF,Max Humidity, Mean Humidity, Min Humidity, Max Sea Level PressureIn, Mean Sea Level PressureIn, Min Sea Level PressureIn, Max VisibilityMiles, Mean VisibilityMiles, Min VisibilityMiles, Max Wind SpeedMPH, Mean Wind SpeedMPH, Max Gust SpeedMPH,PrecipitationIn, CloudCover, Events, WindDirDegrees
2012-8-1,92,78,63,75,67,61,100,75,49,29.95,29.89,29.80,10,9,4,14,8,24,0.00,1,Thunderstorm,193
2012-8-2,87,75,63,66,63,61,93,68,42,29.88,29.85,29.82,10,10,10,14,5,17,0.00,1,,29
2012-8-3,89,76,62,70,65,59,93,74,55,29.90,29.83,29.72,10,10,8,32,9,45,T,1,Thunderstorm,132
2012-8-4,78,70,61,65,61,54,84,63,42,30.02,29.90,29.78,10,10,6,24,9,30,0.00,4,Rain-Thunderstorm,281
2012-8-5,76,65,53,57,53,50,93,67,41,30.25,30.17,30.04,10,10,10,15,6,18,0.00,0,,310
2012-8-6,89,71,52,69,59,49,96,68,39,30.17,30.04,29.94,10,10,10,20,8,25,0.00,0,,187
2012-8-7,92,77,62,68,64,57,93,63,32,30.00,29.97,29.93,10,10,10,13,6,16,0.00,0,,39
2012-8-8,87,76,64,66,63,58,90,67,43,29.99,29.94,29.88,10,10,10,21,7,26,0.00,2,,348
2012-8-9,81,68,54,62,58,51,97,68,39,30.08,30.02,29.98,10,9,2,24,11,31,0.00,3,,349
2012-8-10,75,64,52,56,53,51,100,73,46,30.18,30.13,30.07,10,10,7,14,6,18,0.00,3,,6
2012-8-11,75,61,46,54,49,45,93,66,38,30.12,30.07,30.00,10,10,10,9,4,14,T,1,,77
2012-8-12,64,61,57,59,57,54,93,86,78,30.04,29.98,29.94,10,8,2,16,8,20,0.13,8,Rain,87
2012-8-13,80,68,56,62,57,55,100,73,45,30.09,30.05,29.99,10,8,0,12,6,16,0.00,5,Fog,333
2012-8-14,81,67,53,63,58,52,93,68,42,30.00,29.93,29.85,10,9,6,14,4,17,0.00,1,,210
2012-8-15,84,73,62,66,62,57,93,72,51,29.84,29.77,29.69,10,10,7,24,11,35,0.03,3,Rain,190
2012-8-16,72,60,48,57,50,45,83,62,41,30.10,30.00,29.85,10,10,10,25,14,35,0.00,3,,330
2012-8-17,74,59,44,50,44,41,92,63,33,30.14,30.10,30.06,10,10,10,15,6,18,0.00,0,,334
2012-8-18,68,57,45,55,50,44,93,75,56,30.08,30.05,30.02,10,10,10,12,5,16,T,3,Rain,243
2012-8-19,77,64,51,55,52,48,93,67,41,30.08,30.02,29.98,10,10,10,20,6,24,0.01,2,,323
2012-8-20,79,64,48,56,51,46,93,65,36,30.04,30.02,29.98,10,10,10,10,4,18,0.00,2,,16
2012-8-21,81,64,46,55,49,43,86,60,33,30.08,30.04,29.99,10,10,10,13,5,15,0.00,0,,163
2012-8-22,93,74,55,61,54,49,84,55,26,30.00,29.93,29.86,10,10,9,24,10,32,0.00,1,,168
2012-8-23,90,75,60,63,59,54,84,63,41,29.90,29.86,29.80,10,10,9,30,13,40,0.00,1,,187
2012-8-24,88,77,65,66,63,59,81,63,45,29.88,29.85,29.82,10,10,7,21,11,25,0.00,1,,200
2012-8-25,69,67,65,66,65,62,100,89,78,29.95,29.93,29.87,9,3,1,15,8,20,0.24,8,Rain,167
2012-8-26,83,71,59,67,65,58,100,74,47,30.07,29.99,29.93,10,5,1,8,3,10,0.00,6,Rain,316
2012-8-27,87,72,57,67,60,56,100,68,35,30.16,30.11,30.07,10,9,7,8,3,10,0.00,0,,230
2012-8-28,90,76,61,66,62,59,97,68,38,30.14,30.02,29.93,10,8,4,22,8,29,0.00,0,,171
2012-8-29,94,77,60,61,59,57,90,60,30,29.93,29.84,29.78,10,10,8,17,10,24,0.00,0,,195
2012-8-30,97,81,65,66,61,56,87,56,25,29.93,29.81,29.78,10,10,9,24,13,31,0.00,0,,202
2012-8-31,86,74,61,62,54,48,93,61,29,30.07,30.03,29.94,10,10,10,22,10,26,0.00,0,,35